OneWeb SL0209

operational
NORAD ID: 48215 Int'l Des: 2021-031 Owner: ONEWEBN Country: UK Constellation: oneweb
LEOCIRCULARPOLARONEWEB_TYPE

OneWeb SL0209について

説明を読み込み中...

リアルタイム位置

3D地球を読み込み中...

次回通過

高度履歴

Altitude vs Time

uPlot chart will show altitude changes over time

軌道要素

1 48215U 21031F 25309.15165938 .00000097 00000-0 22655-3 0 9993
2 48215 87.9008 334.3576 0001874 87.3723 272.7621 13.14503360218942
Epoch: Nov 5, 2025 • Age: 14 hours

現在のステータス

高度 1221.4 km
速度 7.24 km/s
衛星直下点 -38.41°S, 152.31°W
打ち上げ日 Apr 25, 2021
運用期間 4.5 years
タイプ internet

技術仕様

分類 Payload
質量 148.00 kg
乾燥質量 140.00 kg
総質量 148.00 kg
長さ 1.30 m
直径 1.00 m
スパン 5.00 m
形状 Trapezoid+2 pan
製造者 ONEWUS
バスタイプ ARROW
フェーズステータス In Orbit
所有者/国 ONEWEBN/UK

大規模コンステレーション

Loading constellations...